User: anonymous   Login
Location: Unspecified
(0.0000°N, 0.0000°E)
Time: 08:06:35
(UTC+00:00)
Language:

Orbcomm G2 (FM04) - Orbit

View from above orbital plane
View from above orbital plane
View from above satellite
View from above satellite

Ground track
Ground track

The orbit data is extracted from the following two-line orbital elements,

1 25159U 98007C   18232.52754605 +.00000017 +00000-0 +57501-4 0  9996
2 25159 107.9978 083.1308 0045651 255.1118 104.4961 14.29564911067710
Epoch (UTC): 20 August 2018 12:39:39
Eccentricity: 0.0045651
inclination: 107.9978°
perigee height: 760 km
apogee height: 826 km
right ascension of ascending node: 83.1308°
argument of perigee: 255.1118°
revolutions per day: 14.29564911
mean anomaly at epoch: 104.4961°
orbit number at epoch: 6771

The dashed part of the orbit path shows where the satellite is in the earth's shadow,  

DLR